Regional Weather Roundup
Issued by NWS

Home | Current Version | Previous Version | Graphics & Text | Print | Product List | Glossary On
Versions: 1 2 3 4 5 6 7 8 9 10 11 12 13 14 15 16 17 18 19 20 21 22 23 24 25 26 27 28 29 30 31 32 33 34 35 36 37 38 39 40 41 42 43 44 45 46 47 48 49 50
000
ASUS43 KFSD 312310
RWRSD

WEATHER ROUNDUP FOR SOUTH DAKOTA
NATIONAL WEATHER SERVICE SIOUX FALLS SD
600 PM CDT THU JUL 31 2014

NOTE: "FAIR" INDICATES FEW OR NO CLOUDS BELOW 12,000 FEET WITH NO
SIGNIFICANT WEATHER AND/OR OBSTRUCTIONS TO VISIBILITY.


SDZ001>005-009-010-012>017-010000-
NORTHWEST AND NORTH CENTRAL SOUTH DAKOTA

CITY           SKY/WX    TMP DP  RH WIND       PRES   REMARKS
BUFFALO          N/A     82  51  34 E3        30.04F
FAITH            N/A     87  48  25 N13G20    30.07F
MOBRIDGE       SUNNY     86  53  32 N8        30.03S
$$

SDZ012>016-024>037-041>051-057-063-072>074-010000-
SOUTHWEST AND SOUTH CENTRAL SOUTH DAKOTA

CITY           SKY/WX    TMP DP  RH WIND       PRES   REMARKS
RAPID CTY ARPT MOSUNNY   88  47  24 MISG      30.11F
PIERRE         SUNNY     87  52  29 N13       30.02F
CUSTER         RAIN      60  52  74 NE5       30.31S
ELLSWORTH AFB  SUNNY     87  45  22 NW7       30.11F
PHILIP         SUNNY     89  47  23 N8        30.04S
PINE RIDGE     MOSUNNY   82  51  34 NE7       30.13F
WINNER         FAIR      87  51  28 E8        30.04F
$$

SDZ004>011-016>023-039-040-010000-
NORTHEAST SOUTH DAKOTA

CITY           SKY/WX    TMP DP  RH WIND       PRES   REMARKS
ABERDEEN       SUNNY     80  52  37 N8        30.04F
WATERTOWN      SUNNY     79  53  40 NW6       30.06S
SISSETON         N/A     81  58  45 NE5       30.02F
$$

SDZ017-020-022-023-036>040-048>070-010000-
SOUTHEAST SOUTH DAKOTA

CITY           SKY/WX    TMP DP  RH WIND       PRES   REMARKS
SIOUX FALLS    TSTM      73  62  68 W7        30.05S
HURON          SUNNY     82  53  36 N9        30.03F
CHAMBERLAIN    MOSUNNY   84  55  36 E6        30.04S
MITCHELL       SUNNY     82  59  45 CALM      30.04S
YANKTON        MOSUNNY   75  57  53 E7        30.05S
$$

ABBREVIATIONS USED IN REMARKS
   TC - TEMPERATURE IN CELSIUS
  WCI - WIND CHILL INDEX
   HX - HEAT INDEX
  VSB - VISIBILITY



USA.gov is the U.S. government's official web portal to all federal, state and local government web resources and services.